Погода в Тулиновке

Россия / Тамбовская область     52°48′44″N   41°33′45″E
темп.,
°C
ветер,
м/с
пор.,
м/с
влажн.,
%
обл.,
%
осадки,
мм/ч
давл.,
гПа
погр.,
м
4 марта, чт
чт400:00−2з5129198 0.1 1013565
03:00−2зюз6119498 0.2 1011581
06:00−2зюз71492100 0.1 1009561
09:00−1зюз81590100 0.1 1008593
12:00+1зюз8168996 0.0 1006709
15:00+1зюз8158398 0.0 1004901
18:000зюз61487100 0.0 1003838
21:000з61292100 0.0 1002706
5 марта, пт
пт500:000зюз51196100 0.2 1001547
03:000зсз4996100 0.8 1002555
06:00−2зсз4896100 0.1 1004345
09:00−4ссз479299 0.1 1007349
12:00−2сз348662 0.0 1009426
15:00−2сз457931 0.0 1011522
18:00−5зсз228984 0.0 101139
21:00−6сз229192 0.0 101456
6 марта, сб
сб600:00−7ссз2292100 0.0 101552
03:00−7с2294100 0.0 101538
06:00−8с2390100 0.0 101566
09:00−7ссв2485100 0.0 1016197
12:00−4с237233 0.0 1016522
15:00−3ссз227117 0.0 1016653
18:00−7ссз239128 0.0 101663
21:00−8зсз119223 0.0 101721
7 марта, вс
вс700:00−9зюз33860 0.0 101797
03:00−9юз499538 0.0 1017259
06:00−10зюз499489 0.1 1016260
09:00−7юз8148175 0.1 1014603
12:00−4юз101671100 0.0 10111011
15:00−2юз101869100 0.0 10061459
18:00−3зюз111993100 1.2 10031280
21:00−3зсз81395100 2.5 1003851
8 марта, пн
пн800:00−7зюз3878100 0.4 1004241
03:00−8юз3783100 0.4 1004151
06:00−7ююз51190100 0.0 1002316
09:00−5зюз71387100 0.0 1002781
12:00−5зсз10147067 0.2 10041503
15:00−6зсз7117435 0.2 10071043
18:00−9зсз411854 0.0 1009581
21:00−10з49882 0.0 1012263